Location: Harwich
(41.6860°N, 70.0760°W)
Time: 17:30:05
(UTC-04:00)

Cosmos 2228 - Visible Passes

Search period start: 16 September 2014 00:00
Search period end: 26 September 2014 00:00
Orbit: 596 x 625 km, 82.5° (Epoch: 15 September)

Date Brightness Start Highest point End Pass type
(mag) Time Alt. Az. Time Alt. Az. Time Alt. Az.
16 Sep 4.9 03:46:57 10° NNE 03:50:45 29° ENE 03:54:29 10° SE visible
16 Sep 4.1 05:24:51 10° NW 05:28:16 23° W 05:31:39 10° SW visible
17 Sep 3.8 04:01:16 10° N 04:05:30 50° E 04:08:53 15° SSE visible
17 Sep 4.8 05:40:36 10° NW 05:42:41 13° W 05:44:45 10° WSW visible
18 Sep 2.9 04:15:48 10° N 04:20:10 90° E 04:21:04 56° S visible
19 Sep 5.9 02:54:25 10° NE 02:56:44 14° ENE 02:57:07 14° ENE visible
19 Sep 3.4 04:30:33 10° NNW 04:33:59 44° WNW 04:33:59 44° WNW visible
20 Sep 5.4 03:08:06 10° NNE 03:10:23 21° NE 03:10:23 21° NE visible
20 Sep 4.6 04:45:33 10° NNW 04:47:17 20° NW 04:47:17 20° NW visible
21 Sep 5.3 03:22:17 10° N 03:23:54 21° NNE 03:23:54 21° NNE visible
22 Sep 5.5 03:36:43 10° N 03:37:35 16° N 03:37:35 16° N visible
